www.pogodaiklimat.ru

АРХИВ ПОГОДЫ в Краснодаре

Время (UTC), дата Ветер
(напр.,м/с)
 
Видим.   Явления Облачность Т
(С)
Тd
(С)
f
(%)
Тe
(С)
Тes
(С)
Комфортность P
(гПа)
Po
(гПа)
Тmin
(С)
Tmax
(С)
R
(мм)
S
(см)
03 18.12 В 1 10 км 10/6 1000 м
[Sc Ci fib]
+5.1 +2.9 86 +4 +4 тепло 1016.8 1013.0 +4.9
06 18.12 В 1 10 км 10/10 1000 м
[Sc]
+6.8 +3.4 79 +6 +6 тепло 1016.6 1012.9
09 18.12 СВ 1 10 км 9/8 1000 м
[Cb cap Ci fib]
+10.5 +4.2 65 +10 +11 тепло 1015.9 1012.2
12 18.12 штиль 0 10 км {ливн. осадки} 9/9 1000 м
[Cb cap]
+11.8 +5.7 66 +11 +12 тепло 1014.5 1010.9
15 18.12 Ю 1 10 км {ливн. осадки} 10/10 600 м
[Sc diur, vesp]
+12.6 +5.2 61 +13 +13 тепло 1015.3 1011.7 +13.1 0.3
18 18.12 З 1 4000 м слабый ливневой дождь 10/10 600 м
[Cb cap]
+9.7 +6.7 82 +9 +9 тепло 1015.5 1011.9
21 18.12 штиль 0 10 км {ливн. осадки} 6/6 1000 м
[Sc]
+7.1 +6.1 93 +6 +6 тепло 1015.9 1012.2
00 19.12 Ю 1 10 км {ливн. осадки} 10/10 1000 м
[Sc]
+7.5 +6.2 91 +7 +7 тепло 1016.5 1012.8
03 19.12 Ю 1 4000 м слабый ливневой дождь 10/10 600 м
[Cb cap]
+8.6 +7.1 90 +8 +8 тепло 1017.0 1013.3 +6.7 2
06 19.12 ЮЗ 1 10 км {ливн. осадки} 9/9 600 м
[Sc]
+10.4 +7.6 83 +10 +10 тепло 1018.1 1014.5
09 19.12 ЮЗ 2 10 км 10/10 1000 м
[Cb cap]
+12.3 +8.1 76 +11 +11 тепло 1018.5 1014.9
12 19.12 З 2 4000 м слабый ливневой дождь 10/10 300 м
[Cb cap]
+9.7 +8.2 90 +8 +8 тепло 1019.4 1015.7
15 19.12 З 2 10 км {ливн. осадки} 10/10 1000 м
[Sc]
+7.3 +5.8 90 +5 +5 тепло 1021.2 1017.5 +12.7 2
18 19.12 СЗ 2 10 км 10/10 1000 м
[Sc]
+6.5 +4.8 89 +4 +4 тепло 1022.2 1018.5
21 19.12 Ю 1 4000 м слабый ливневой дождь 10/10 1000 м
[Sc]
+6.0 +4.7 91 +5 +5 тепло 1022.1 1018.4
00 20.12 Ю 1 10 км {ливн. осадки} 10/10 1000 м
[Sc]
+6.3 +5.1 92 +5 +5 тепло 1022.2 1018.4
03 20.12 штиль 0 10 км 8/4 1000 м
[Sc Ac trans]
+5.5 +4.5 93 +4 +4 тепло 1021.6 1017.9 +5.5
06 20.12 ЮЗ 1 10 км 9/8 600 м
[Sc Ac trans]
+8.5 +4.1 74 +8 +8 тепло 1021.9 1018.2
09 20.12 Ю 3 10 км 10/8 1000 м
[Sc Ac und]
+10.4 +4.6 67 +9 +9 тепло 1020.8 1017.1
12 20.12 ЮЗ 3 10 км 10/10 600 м
[St]
+11.3 +4.9 65 +10 +10 тепло 1019.6 1015.9
15 20.12 Ю 1 10 км 8/6 1000 м
[Sc Ac trans]
+10.1 +5.5 73 +10 +10 тепло 1018.6 1014.9 +11.3
18 20.12 Ю 1 10 км 9/9 1000 м
[Sc]
+9.8 +5.5 75 +9 +9 тепло 1018.3 1014.7
21 20.12 Ю 2 10 км 10/3 1000 м
[Sc Ac und]
+10.6 +6.7 77 +9 +9 тепло 1017.5 1013.8
00 21.12 ЮЗ 2 10 км 10/0
[Ac und]
+10.9 +6.1 72 +10 +10 тепло 1016.9 1013.2
03 21.12 Ю 2 10 км {ливн. осадки} 10/0
[Ac und]
+10.4 +6.5 77 +9 +9 тепло 1016.5 1012.8 +9.7 0.0
06 21.12 Ю 1 10 км {ливн. осадки} 10/6 600 м
[Sc Ac trans Ci fib]
+10.3 +6.0 75 +10 +10 тепло 1016.4 1012.7
09 21.12 Ю 3 10 км 8/5 1000 м
[Cb cap Ac trans Ci fib]
+11.9 +5.9 67 +10 +11 тепло 1015.3 1011.7
12 21.12 Ю 3
{10}
10 км 10/8 1000 м
[Cb cap Ac und]
+11.9 +5.0 63 +10 +11 тепло 1013.9 1010.3
15 21.12 Ю 2 10 км 10/4 1000 м
[Cb cap Ac und]
+11.4 +5.5 67 +10 +10 тепло 1012.7 1009.0 +13.1 0.0
18 21.12 ЮЗ 2 4000 м слабый ливневой дождь 10/10 1000 м
[Cb cap]
+10.4 +5.9 74 +9 +9 тепло 1011.9 1008.2
21 21.12 ЮЗ 3 4000 м слабый ливневой дождь 10/8 600 м
[Cb cap Ac und]
+9.4 +6.3 81 +7 +7 тепло 1010.5 1006.8
00 22.12 ЮЗ 2 4000 м слабый ливневой дождь 10/10 1000 м
[Cb cap]
+10.4 +5.9 74 +9 +9 тепло 1011.9 1008.2
03 22.12 З 2 4000 м слабый ливневой дождь 10/10 300 м
[Cb cap]
+2.1 +1.3 94 -1 -1 по сезону 1013.8 1010.1 +2.1 21
06 22.12 З 2 10 км в посл. час ливневой дождь 10/10 300 м
[Cb cap]
+3.7 +2.4 91 +1 +1 по сезону 1016.4 1012.7 +2.1
09 22.12 З 2 10 км 10/10 600 м
[Cb cap]
+4.6 +1.5 80 +2 +2 по сезону 1018.6 1014.9
12 22.12 З 3 10 км 9/9 600 м
[Cb cap]
+4.2 -0.4 72 +1 +1 по сезону 1019.7 1015.9
15 22.12 ЮЗ 2 10 км ясно +3.1 -0.9 75 0 0 по сезону 1020.8 1017.1 +4.9 3
18 22.12 Ю 2 10 км ясно +1.2 -2.9 74 -2 -2 по сезону 1021.6 1017.8
21 22.12 Ю 2 10 км 9/9 1000 м
[Sc]
+1.4 -3.2 71 -2 -2 по сезону 1020.1 1016.3
00 23.12 Ю 1 10 км 10/3 1000 м
[Sc Ac trans Ci fib]
+2.9 -2.3 69 +2 +2 по сезону 1017.5 1013.7
03 23.12 ЮЗ 2 10 км {ливн. осадки} 10/6 1000 м
[Cb cap Ac und]
+3.9 +1.1 82 +1 +1 по сезону 1014.5 1010.8 +0.7 0.0
06 23.12 Ю 4 10 км {ливн. осадки} 10/4 1000 м
[Cu Sc]
+5.5 +1.8 77 +2 +2 по сезону 1012.6 1008.9
09 23.12 Ю 4-12
{12}
10 км 10/3 1000 м
[Sc Ac trans]
+7.0 +2.3 72 +4 +4 по сезону 1010.9 1007.2
12 23.12 ЮЗ 4-11
{14}
10 км слабый ливневой дождь 10/10 600 м
[Cb cap]
+6.6 +3.0 78 +3 +3 по сезону 1010.2 1006.5
15 23.12 ЮЗ 5-12
{13}
10 км {ливн. осадки} 10/10 300 м
[Cb cap]
+6.5 +3.4 81 +2 +2 по сезону 1011.1 1007.4 +7.1 5
18 23.12 Ю 4
{12}
10 км в посл. час ливневой дождь 10/10 1000 м
[Cb cap]
+6.3 +3.6 83 +3 +3 по сезону 1011.7 1008.0
21 23.12 Ю 6-12
{13}
4000 м слабый ливневой дождь 10/10 600 м
[Cb cap]
+6.3 +4.4 88 +2 +2 по сезону 1012.5 1008.8
00 24.12 Ю 4
{12}
4000 м слабый ливневой дождь 10/10 300 м
[Cb cap]
+6.9 +5.4 90 +3 +3 по сезону 1012.1 1008.4
03 24.12 ЮЗ 3 4000 м слабый ливневой дождь 10/10 300 м
[Cb cap]
+8.9 +7.2 89 +6 +6 тепло 1010.5 1006.9 +5.9 8
06 24.12 ЮЗ 4 4000 м слабый ливневой дождь 10/10 300 м
[Cb cap]
+10.0 +7.7 86 +7 +7 тепло 1011.1 1007.5
09 24.12 ЮЗ 5-10
{11}
10 км {ливн. осадки} 10/6 600 м
[Cb cap Ac und]
+12.0 +6.9 71 +10 +10 тепло 1011.8 1008.2
12 24.12 З 4-12
{12}
10 км {ливн. осадки} 9/9 1000 м
[Cb cap]
+12.3 +5.4 63 +11 +11 тепло 1013.4 1009.7
15 24.12 ЮЗ 3
{13}
10 км 6/3 1000 м
[Cb cap Ci fib]
+10.5 +5.1 69 +9 +9 тепло 1016.6 1013.0 +12.4 3
18 24.12 ЮЗ 2 10 км 10/3 600 м
[Cb cap Ci fib]
+10.3 +4.9 69 +9 +9 тепло 1018.4 1014.7
21 24.12 З 3 10 км 8/8 600 м
[Cb cap]
+11.1 +5.1 66 +9 +9 тепло 1018.9 1015.3
00 25.12 ЮЗ 1 10 км 10/10 600 м
[Sc]
+10.1 +5.6 74 +10 +10 тепло 1018.4 1014.7

 

Обсудить погоду в Краснодаре на МЕТЕОФОРУМЕ

 

Местоположение метеостанции Краснодар (Краснодарский край, Россия): широта 45.03 долгота 39.15 высота над уровнем моря 34 м.

В архиве по умолчанию представлена погода в Краснодаре за последнюю неделю. Архивные данные за месяц целиком и за предыдущие месяцы, начиная с января 2011 года, Вы можете получить, выбрав интересующий диапазон дат из раскрывающегося списка и нажав кнопку "Ввод!".

Внимание! Время в таблицах - всемирное. Для получения местного времени необходимо прибавить поправку, которая в Краснодаре равна 3 ч.

Ветер - указаны скорость ветра в м/с - средняя за 10 мин, порывы в срок и между сроками (в фигурных скобках) и направление, откуда дует ветер: С - северный, СВ - северо-восточный, В - восточный, ЮВ - юго-восточный, Ю - южный, ЮЗ - юго-западный, З - западный, СЗ - северо-западный.
Видимость - горизонтальная дальность видимости в метрах или километрах. При видимости от 1 до 10 км при отсутствии осадков обычно наблюдается дымка, при ухудшении видимости до 1 км и менее - туман. В сухую погоду видимость может ухудшаться дымом, пылью или мглою.
Явления - указаны атсосферные явления, наблюдавшиеся в срок или в последний час перед сроком; фигурными скобками обозначены явления, наблюдавшиеся между сроками (за 1-3 часа до срока); квадратными скобками обозначены град или гололедные отложения с указанием их диаметра в мм.
Облачность - указаны через наклонную черту общая и нижняя облачность в баллах и высота нижней границы облаков в метрах; квадратными скобками обозначены формы облаков: Ci - перистые, Cs - перисто-слоистые, Cc - перисто-кучевые, Ac - высококучевые, As - высокослоистые, Sc - слоисто-кучевые, Ns - слоисто-дождевые, Cu - кучевые, Cb - кучево-дождевые. Подробнее классификацию облаков см. в Атласе облаков (PDF).
T - Температура воздуха - температура, измеренная на высоте 2 м над землей.
Td - Температура точки росы - температура, при понижении до которой содержащийся в воздухе водяной пар достигнет насыщения.
f - Относительная влажность воздуха - влажноcть воздуха, измеренная на высоте 2 м над землей.
Te - Эффективная температура - температура, которую ощущает одетый по сезону человек в тени. Характеристика душности погоды. При расчете учитывается влияние влажности воздуха и скорости ветра на теплоощущения человека.
Tes - Эффективная температура на солнце - температура, которую ощущает человек, с поправкой на солнечный нагрев. Характеристика знойности погоды. Зависит от высоты солнца над горизонтом, облачности и скорости ветра. Ночью, в пасмурную погоду, а также при ветре 12 м/с и более поправка равна нулю.
P - Атмосферное давление - приведенное к уровню моря атмосферное давление.
Po - Атмосферное давление - измеренное на уровне метеостанции атмосферное давление.
Tmin - Минимальная температура - минимум температуры воздуха на высоте 2 м над землей.
Tmax - Максимальная температура - максимум температуры воздуха на высоте 2 м над землей.
R - Количество осадков - Количество выпавших осадков, мм.
S - Снежный покров - Высота снежного покрова, см.